Tracking 25620 objects as of 18-May-2022
HD Live streaming from Space Station
objects crossing your sky now

COSMOS 2251 DEB

Track COSMOS 2251 DEB now!
10-day predictions


NORAD ID: 37995
Int'l Code: 1993-036BQW
Perigee: 575.2 km
Apogee: 621.5 km
Inclination: 74.0 °
Period: 96.5 minutes
Semi major axis: 6969 km
RCS: 0.0024 m2 (small)
Launch date: June 16, 1993
Source: Commonwealth of Independent States (former USSR) (CIS)
Launch site: PLESETSK MISSILE AND SPACE COMPLEX (PKMTR)

Note: This is SATELLITE DEBRIS
aabbcc
Your satellite tracking list
Your tracking list is empty




NASA's NSSDC Master Catalog

Two Line Element Set (TLE):
1 37995U 93036BQW 22136.82188369  .00029288  00000-0  28387-2 0  9992
2 37995  73.9791 335.6533 0033242 114.6077 245.8575 14.92155874504460
Source of the keplerian elements: AFSPC